| time (UTC) | temp C | wind direction | speed KPH | gust KPH | rain 1hr cm | rain 24hr cm | rain mn cm | humidity % | barometer mb |
| 20260903152040 | 28 | 173 | 6.4 | 14.5 | 0.00 | 0.00 | 0.00 | 74 | 1012.7 |
| 20260903151543 | 28 | 157 | 6.4 | 14.5 | 0.00 | 0.00 | 0.00 | 75 | 1012.7 |
| 20260903151010 | 28 | 185 | 6.4 | 14.5 | 0.00 | 0.00 | 0.00 | 76 | 1012.7 |
| 20260903150551 | 28 | 130 | 4.8 | 14.5 | 0.00 | 0.00 | 0.00 | 76 | 1012.8 |
| 20260903150045 | 28 | 174 | 6.4 | 17.7 | 0.00 | 0.00 | 0.00 | 77 | 1012.8 |
| 20260903145520 | 28 | 186 | 6.4 | 17.7 | 0.00 | 0.00 | 0.00 | 77 | 1012.8 |
| 20260903145101 | 28 | 134 | 4.8 | 14.5 | 0.00 | 0.00 | 0.00 | 78 | 1012.8 |
| 20260903144553 | 28 | 196 | 1.6 | 9.7 | 0.00 | 0.00 | 0.00 | 78 | 1012.7 |
| 20260903144030 | 28 | 182 | 1.6 | 9.7 | 0.00 | 0.00 | 0.00 | 79 | 1012.8 |
| 20260903143507 | 28 | 155 | 3.2 | 12.9 | 0.00 | 0.00 | 0.00 | 80 | 1012.9 |
| 20260903143104 | 27 | 134 | 3.2 | 14.5 | 0.00 | 0.00 | 0.00 | 80 | 1012.9 |
| 20260903142542 | 27 | 159 | 6.4 | 14.5 | 0.00 | 0.00 | 0.00 | 80 | 1012.8 |
| 20260903142019 | 27 | 160 | 3.2 | 14.5 | 0.00 | 0.00 | 0.00 | 81 | 1012.8 |
| 20260903141509 | 27 | 138 | 6.4 | 12.9 | 0.00 | 0.00 | 0.00 | 81 | 1012.8 |
| 20260903141054 | 27 | 153 | 3.2 | 14.5 | 0.00 | 0.00 | 0.00 | 82 | 1012.7 |
| 20260903140527 | 27 | 232 | 1.6 | 11.3 | 0.00 | 0.00 | 0.00 | 83 | 1012.8 |
| 20260903140031 | 27 | 196 | 3.2 | 16.1 | 0.00 | 0.00 | 0.00 | 83 | 1012.8 |
| 20260903135601 | 27 | 251 | 3.2 | 16.1 | 0.00 | 0.00 | 0.00 | 84 | 1012.8 |
| 20260903135038 | 27 | 215 | 1.6 | 11.3 | 0.00 | 0.00 | 0.00 | 84 | 1012.8 |
| 20260903134538 | 27 | 199 | 3.2 | 9.7 | 0.00 | 0.00 | 0.00 | 84 | 1012.8 |
| 20260903134007 | 27 | 159 | 4.8 | 12.9 | 0.00 | 0.00 | 0.00 | 84 | 1012.9 |
| 20260903133548 | 27 | 144 | 3.2 | 12.9 | 0.00 | 0.00 | 0.00 | 85 | 1012.9 |
| 20260903133042 | 26 | 212 | 3.2 | 14.5 | 0.00 | 0.00 | 0.00 | 85 | 1012.8 |
| 20260903132518 | 26 | 150 | 4.8 | 16.1 | 0.00 | 0.00 | 0.00 | 85 | 1012.8 |
| 20260903132059 | 26 | 145 | 8.0 | 16.1 | 0.00 | 0.00 | 0.00 | 85 | 1012.9 |
| 20260903131549 | 26 | 143 | 3.2 | 11.3 | 0.00 | 0.00 | 0.00 | 86 | 1012.9 |
| 20260903131026 | 26 | 139 | 1.6 | 12.9 | 0.00 | 0.00 | 0.00 | 86 | 1012.8 |
| 20260903130502 | 26 | 172 | 4.8 | 12.9 | 0.00 | 0.00 | 0.00 | 86 | 1012.8 |
| 20260903125537 | 26 | 167 | 6.4 | 16.1 | 0.00 | 0.00 | 0.00 | 86 | 1012.8 |
| 20260903125013 | 26 | 126 | 4.8 | 12.9 | 0.00 | 0.00 | 0.00 | 86 | 1012.7 |
| 20260903124523 | 26 | 127 | 4.8 | 14.5 | 0.00 | 0.00 | 0.00 | 86 | 1012.6 |
| 20260903124103 | 26 | 139 | 6.4 | 14.5 | 0.00 | 0.00 | 0.00 | 87 | 1012.6 |
| 20260903123541 | 26 | 161 | 3.2 | 11.3 | 0.00 | 0.00 | 0.00 | 87 | 1012.6 |
| 20260903123038 | 26 | 229 | 3.2 | 11.3 | 0.00 | 0.00 | 0.00 | 87 | 1012.6 |
| 20260903122511 | 26 | 192 | 3.2 | 14.5 | 0.00 | 0.00 | 0.00 | 87 | 1012.5 |
| 20260903122052 | 26 | 198 | 3.2 | 14.5 | 0.00 | 0.00 | 0.00 | 87 | 1012.4 |
| 20260903121545 | 26 | 180 | 3.2 | 16.1 | 0.00 | 0.00 | 0.00 | 87 | 1012.4 |
| 20260903121025 | 26 | 139 | 8.0 | 16.1 | 0.00 | 0.00 | 0.00 | 87 | 1012.4 |
| 20260903120607 | 26 | 144 | 6.4 | 17.7 | 0.00 | 0.00 | 0.00 | 87 | 1012.4 |
| 20260903120057 | 26 | 144 | 6.4 | 17.7 | 0.00 | 0.00 | 0.00 | 87 | 1012.4 |
| 20260903115535 | 26 | 165 | 4.8 | 14.5 | 0.00 | 0.00 | 0.00 | 86 | 1012.3 |
| 20260903115010 | 26 | 203 | 6.4 | 12.9 | 0.00 | 0.00 | 0.00 | 86 | 1012.3 |
| 20260903114527 | 26 | 148 | 3.2 | 11.3 | 0.00 | 0.00 | 0.00 | 86 | 1012.2 |
| 20260903114103 | 26 | 192 | 3.2 | 12.9 | 0.00 | 0.00 | 0.00 | 86 | 1012.2 |
| 20260903113539 | 26 | 140 | 6.4 | 17.7 | 0.00 | 0.00 | 0.00 | 86 | 1012.2 |
| 20260903113032 | 26 | 140 | 8.0 | 20.9 | 0.00 | 0.00 | 0.00 | 86 | 1012.3 |
| 20260903112509 | 26 | 147 | 6.4 | 16.1 | 0.00 | 0.00 | 0.00 | 86 | 1012.4 |
| 20260903112051 | 26 | 144 | 4.8 | 16.1 | 0.00 | 0.00 | 0.00 | 87 | 1012.4 |
| 20260903111544 | 26 | 151 | 8.0 | 16.1 | 0.00 | 0.00 | 0.00 | 87 | 1012.4 |
| 20260903111021 | 26 | 136 | 6.4 | 17.7 | 0.00 | 0.00 | 0.00 | 87 | 1012.4 |
| 20260903110603 | 26 | 138 | 4.8 | 17.7 | 0.00 | 0.00 | 0.00 | 87 | 1012.4 |
| 20260903110104 | 26 | 160 | 3.2 | 9.7 | 0.00 | 0.00 | 0.00 | 87 | 1012.4 |
| 20260903105533 | 26 | 130 | 4.8 | 14.5 | 0.00 | 0.00 | 0.00 | 87 | 1012.3 |
| 20260903105009 | 26 | 144 | 3.2 | 12.9 | 0.00 | 0.00 | 0.00 | 87 | 1012.3 |
| 20260903104503 | 26 | 147 | 6.4 | 17.7 | 0.00 | 0.00 | 0.00 | 87 | 1012.2 |
| 20260903104045 | 26 | 126 | 8.0 | 17.7 | 0.00 | 0.00 | 0.00 | 87 | 1012.1 |
| 20260903103520 | 26 | 177 | 3.2 | 17.7 | 0.00 | 0.00 | 0.00 | 86 | 1012.0 |
| 20260903103034 | 26 | 152 | 8.0 | 17.7 | 0.00 | 0.00 | 0.00 | 86 | 1012.0 |
| 20260903102507 | 26 | 165 | 6.4 | 16.1 | 0.00 | 0.00 | 0.00 | 86 | 1012.0 |
| 20260903102049 | 26 | 146 | 4.8 | 14.5 | 0.00 | 0.00 | 0.00 | 86 | 1012.0 |
| 20260903101545 | 26 | 151 | 6.4 | 14.5 | 0.00 | 0.00 | 0.00 | 86 | 1011.9 |
| 20260903101022 | 26 | 150 | 4.8 | 12.9 | 0.00 | 0.00 | 0.00 | 86 | 1012.0 |
| 20260903100601 | 26 | 154 | 4.8 | 12.9 | 0.00 | 0.00 | 0.00 | 86 | 1011.9 |
| 20260903100056 | 26 | 169 | 4.8 | 12.9 | 0.00 | 0.00 | 0.00 | 86 | 1012.0 |
| 20260903095532 | 26 | 146 | 3.2 | 19.3 | 0.00 | 0.00 | 0.00 | 86 | 1012.1 |
| 20260903095009 | 26 | 150 | 6.4 | 16.1 | 0.00 | 0.00 | 0.00 | 86 | 1012.0 |
| 20260903094503 | 26 | 164 | 3.2 | 14.5 | 0.00 | 0.00 | 0.00 | 86 | 1012.0 |
| 20260903094044 | 26 | 151 | 3.2 | 14.5 | 0.00 | 0.00 | 0.00 | 85 | 1012.0 |
| 20260903093521 | 26 | 210 | 4.8 | 12.9 | 0.00 | 0.00 | 0.00 | 85 | 1012.0 |
| 20260903093037 | 26 | 142 | 4.8 | 12.9 | 0.00 | 0.00 | 0.00 | 85 | 1012.0 |
| 20260903092559 | 26 | 146 | 6.4 | 11.3 | 0.00 | 0.00 | 0.00 | 85 | 1012.2 |
| 20260903092033 | 26 | 145 | 4.8 | 17.7 | 0.00 | 0.00 | 0.00 | 85 | 1012.3 |
| 20260903091527 | 26 | 144 | 3.2 | 14.5 | 0.00 | 0.00 | 0.00 | 85 | 1012.3 |
| 20260903091003 | 26 | 130 | 6.4 | 16.1 | 0.00 | 0.00 | 0.00 | 85 | 1012.4 |
| 20260903090545 | 26 | 159 | 4.8 | 14.5 | 0.00 | 0.00 | 0.00 | 84 | 1012.4 |
| 20260903090039 | 26 | 163 | 4.8 | 14.5 | 0.00 | 0.00 | 0.00 | 84 | 1012.4 |
| 20260903085516 | 26 | 157 | 4.8 | 17.7 | 0.00 | 0.00 | 0.00 | 84 | 1012.3 |
| 20260903085056 | 26 | 117 | 6.4 | 17.7 | 0.00 | 0.00 | 0.00 | 84 | 1012.3 |
| 20260903084553 | 26 | 140 | 6.4 | 17.7 | 0.00 | 0.00 | 0.00 | 84 | 1012.3 |
| 20260903084028 | 26 | 134 | 8.0 | 16.1 | 0.00 | 0.00 | 0.00 | 83 | 1012.3 |
| 20260903083504 | 26 | 187 | 4.8 | 14.5 | 0.00 | 0.00 | 0.00 | 83 | 1012.3 |
| 20260903083105 | 26 | 188 | 4.8 | 14.5 | 0.00 | 0.00 | 0.00 | 82 | 1012.3 |
| 20260903082540 | 26 | 151 | 6.4 | 14.5 | 0.00 | 0.00 | 0.00 | 82 | 1012.4 |
| 20260903082017 | 26 | 150 | 4.8 | 14.5 | 0.00 | 0.00 | 0.00 | 82 | 1012.3 |
| 20260903081514 | 26 | 136 | 6.4 | 14.5 | 0.00 | 0.00 | 0.00 | 82 | 1012.3 |
| 20260903081052 | 26 | 132 | 4.8 | 14.5 | 0.00 | 0.00 | 0.00 | 81 | 1012.4 |
| 20260903080525 | 26 | 142 | 8.0 | 14.5 | 0.00 | 0.00 | 0.00 | 81 | 1012.3 |
| 20260903080038 | 27 | 159 | 4.8 | 11.3 | 0.00 | 0.00 | 0.00 | 80 | 1012.4 |
| 20260903075515 | 27 | 143 | 4.8 | 14.5 | 0.00 | 0.00 | 0.00 | 80 | 1012.3 |
| 20260903075055 | 27 | 138 | 6.4 | 16.1 | 0.00 | 0.00 | 0.00 | 80 | 1012.3 |
| 20260903074508 | 27 | 169 | 6.4 | 16.1 | 0.00 | 0.00 | 0.00 | 79 | 1012.4 |
| 20260903074045 | 27 | 178 | 4.8 | 14.5 | 0.00 | 0.00 | 0.00 | 79 | 1012.4 |
| 20260903073523 | 26 | 147 | 8.0 | 14.5 | 0.00 | 0.00 | 0.00 | 79 | 1012.4 |
| 20260903073017 | 26 | 197 | 4.8 | 8.0 | 0.00 | 0.00 | 0.00 | 79 | 1012.3 |
| 20260903072557 | 26 | 182 | 4.8 | 11.3 | 0.00 | 0.00 | 0.00 | 79 | 1012.4 |
| 20260903072036 | 26 | 150 | 3.2 | 11.3 | 0.00 | 0.00 | 0.00 | 79 | 1012.4 |
| 20260903071530 | 26 | 148 | 3.2 | 12.9 | 0.00 | 0.00 | 0.00 | 79 | 1012.5 |
| 20260903071005 | 26 | 173 | 4.8 | 12.9 | 0.00 | 0.00 | 0.00 | 79 | 1012.6 |
| 20260903070548 | 26 | 159 | 4.8 | 8.0 | 0.00 | 0.00 | 0.00 | 79 | 1012.6 |
| 20260903070100 | 26 | 155 | 4.8 | 11.3 | 0.00 | 0.00 | 0.00 | 80 | 1012.6 |
| 20260903065536 | 26 | 161 | 4.8 | 11.3 | 0.00 | 0.00 | 0.00 | 80 | 1012.6 |
| 20260903065012 | 26 | 137 | 3.2 | 11.3 | 0.00 | 0.00 | 0.00 | 80 | 1012.6 |
| 20260903064508 | 26 | 148 | 4.8 | 11.3 | 0.00 | 0.00 | 0.00 | 80 | 1012.6 |
| 20260903064049 | 26 | 142 | 4.8 | 11.3 | 0.00 | 0.00 | 0.00 | 80 | 1012.7 |
| 20260903063526 | 26 | 162 | 4.8 | 11.3 | 0.00 | 0.00 | 0.00 | 80 | 1012.8 |
| 20260903063021 | 26 | 155 | 1.6 | 9.7 | 0.00 | 0.00 | 0.00 | 80 | 1012.8 |
| 20260903062603 | 26 | 155 | 3.2 | 14.5 | 0.00 | 0.00 | 0.00 | 80 | 1012.9 |
| 20260903062038 | 26 | 161 | 4.8 | 14.5 | 0.00 | 0.00 | 0.00 | 81 | 1012.9 |
| 20260903061534 | 26 | 152 | 3.2 | 14.5 | 0.00 | 0.00 | 0.00 | 81 | 1012.8 |
| 20260903061013 | 26 | 151 | 4.8 | 14.5 | 0.00 | 0.00 | 0.00 | 81 | 1012.9 |
| 20260903060552 | 26 | 142 | 3.2 | 8.0 | 0.00 | 0.00 | 0.00 | 81 | 1012.8 |
| 20260903060003 | 26 | 140 | 3.2 | 8.0 | 0.00 | 0.00 | 0.00 | 80 | 1012.9 |
| 20260903055543 | 26 | 142 | 1.6 | 8.0 | 0.00 | 0.00 | 0.00 | 80 | 1012.9 |
| 20260903055022 | 26 | 150 | 3.2 | 9.7 | 0.00 | 0.00 | 0.00 | 80 | 1012.9 |
| 20260903054522 | 26 | 155 | 3.2 | 9.7 | 0.00 | 0.00 | 0.00 | 80 | 1013.0 |
| 20260903054056 | 26 | 137 | 1.6 | 12.9 | 0.00 | 0.00 | 0.00 | 79 | 1013.0 |
| 20260903053533 | 27 | 134 | 6.4 | 16.1 | 0.00 | 0.00 | 0.00 | 79 | 1013.0 |
| 20260903053028 | 27 | 149 | 6.4 | 16.1 | 0.00 | 0.00 | 0.00 | 78 | 1012.9 |
| 20260903052505 | 27 | 132 | 6.4 | 14.5 | 0.00 | 0.00 | 0.00 | 77 | 1013.0 |
| 20260903052046 | 27 | 133 | 3.2 | 17.7 | 0.00 | 0.00 | 0.00 | 77 | 1013.0 |
| 20260903051542 | 27 | 128 | 11.3 | 17.7 | 0.00 | 0.00 | 0.00 | 76 | 1012.9 |
| 20260903051020 | 27 | 134 | 4.8 | 14.5 | 0.00 | 0.00 | 0.00 | 75 | 1012.9 |
| 20260903050559 | 27 | 169 | 6.4 | 17.7 | 0.00 | 0.00 | 0.00 | 75 | 1012.8 |
| 20260903050009 | 27 | 161 | 8.0 | 17.7 | 0.00 | 0.00 | 0.00 | 74 | 1012.8 |
| 20260903045550 | 27 | 145 | 6.4 | 14.5 | 0.00 | 0.00 | 0.00 | 73 | 1012.8 |
| 20260903045026 | 27 | 129 | 6.4 | 14.5 | 0.00 | 0.00 | 0.00 | 73 | 1012.7 |
| 20260903044541 | 27 | 140 | 4.8 | 11.3 | 0.00 | 0.00 | 0.00 | 73 | 1012.7 |
| 20260903044017 | 27 | 138 | 4.8 | 12.9 | 0.00 | 0.00 | 0.00 | 72 | 1012.7 |
| 20260903043559 | 27 | 148 | 1.6 | 12.9 | 0.00 | 0.00 | 0.00 | 71 | 1012.7 |
| 20260903043054 | 28 | 71 | 1.6 | 8.0 | 0.00 | 0.00 | 0.00 | 71 | 1012.7 |
| 20260903042530 | 28 | 125 | 1.6 | 8.0 | 0.00 | 0.00 | 0.00 | 70 | 1012.7 |
| 20260903042007 | 28 | 136 | 1.6 | 14.5 | 0.00 | 0.00 | 0.00 | 70 | 1012.7 |
| 20260903041524 | 28 | 135 | 3.2 | 20.9 | 0.00 | 0.00 | 0.00 | 70 | 1012.7 |
| 20260903041002 | 28 | 131 | 4.8 | 20.9 | 0.00 | 0.00 | 0.00 | 70 | 1012.8 |
| 20260903040542 | 28 | 98 | 3.2 | 17.7 | 0.00 | 0.00 | 0.00 | 70 | 1012.9 |
| 20260903040100 | 28 | 126 | 9.7 | 16.1 | 0.00 | 0.00 | 0.00 | 70 | 1012.9 |
| 20260903035535 | 28 | 140 | 6.4 | 12.9 | 0.00 | 0.00 | 0.00 | 70 | 1012.9 |
| 20260903035012 | 28 | 137 | 3.2 | 17.7 | 0.00 | 0.00 | 0.00 | 71 | 1012.8 |
| 20260903034510 | 28 | 130 | 6.4 | 17.7 | 0.00 | 0.00 | 0.00 | 70 | 1012.8 |
| 20260903034049 | 28 | 131 | 4.8 | 16.1 | 0.00 | 0.00 | 0.00 | 70 | 1012.8 |
| 20260903033525 | 29 | 76 | 6.4 | 16.1 | 0.00 | 0.00 | 0.00 | 69 | 1012.9 |
| 20260903033039 | 29 | 67 | 4.8 | 12.9 | 0.00 | 0.00 | 0.00 | 68 | 1012.7 |
| 20260903032508 | 29 | 90 | 3.2 | 12.9 | 0.00 | 0.00 | 0.00 | 67 | 1012.8 |
| 20260903032053 | 30 | 63 | 4.8 | 12.9 | 0.00 | 0.00 | 0.00 | 66 | 1012.7 |
| 20260903031556 | 30 | 76 | 1.6 | 12.9 | 0.00 | 0.00 | 0.00 | 65 | 1012.5 |
| 20260903031037 | 30 | 67 | 4.8 | 12.9 | 0.00 | 0.00 | 0.00 | 63 | 1012.4 |
| 20260903030515 | 30 | 76 | 3.2 | 12.9 | 0.00 | 0.00 | 0.00 | 61 | 1012.3 |
| 20260903030029 | 30 | 84 | 1.6 | 16.1 | 0.00 | 0.00 | 0.00 | 60 | 1012.2 |
| 20260903025504 | 30 | 130 | 6.4 | 17.7 | 0.00 | 0.00 | 0.00 | 60 | 1012.1 |
| 20260903025044 | 30 | 131 | 4.8 | 17.7 | 0.00 | 0.00 | 0.00 | 60 | 1012.0 |
| 20260903024555 | 30 | 135 | 4.8 | 14.5 | 0.00 | 0.00 | 0.00 | 60 | 1012.0 |
| 20260903024032 | 30 | 46 | 3.2 | 12.9 | 0.00 | 0.00 | 0.00 | 60 | 1011.9 |
| 20260903023508 | 30 | 146 | 1.6 | 4.8 | 0.00 | 0.00 | 0.00 | 60 | 1011.7 |
| 20260903023020 | 30 | 146 | 0.0 | 1.6 | 0.00 | 0.00 | 0.00 | 60 | 1011.5 |
| 20260903022600 | 30 | 146 | 0.0 | 1.6 | 0.00 | 0.00 | 0.00 | 60 | 1011.3 |
| 20260903022039 | 30 | 146 | 0.0 | 0.0 | 0.00 | 0.00 | 0.00 | 58 | 1011.2 |
| 20260903021548 | 30 | 146 | 0.0 | 0.0 | 0.00 | 0.00 | 0.00 | 58 | 1011.0 |
| 20260903021026 | 30 | 146 | 0.0 | 3.2 | 0.00 | 0.00 | 0.00 | 58 | 1011.0 |
| 20260903020605 | 30 | 146 | 0.0 | 3.2 | 0.00 | 0.00 | 0.00 | 59 | 1010.9 |
| 20260903020011 | 31 | 146 | 0.0 | 0.0 | 0.00 | 0.00 | 0.00 | 58 | 1010.9 |
| 20260903015553 | 31 | 146 | 0.0 | 3.2 | 0.00 | 0.00 | 0.00 | 57 | 1010.9 |
| 20260903015029 | 31 | 146 | 0.0 | 3.2 | 0.00 | 0.00 | 0.00 | 56 | 1010.8 |
| 20260903014552 | 31 | 146 | 0.0 | 0.0 | 0.00 | 0.00 | 0.00 | 57 | 1010.7 |
| 20260903014018 | 31 | 146 | 0.0 | 0.0 | 0.00 | 0.00 | 0.00 | 56 | 1010.7 |
| 20260903013558 | 31 | 146 | 0.0 | 0.0 | 0.00 | 0.00 | 0.00 | 56 | 1010.6 |
| 20260903013007 | 32 | 146 | 0.0 | 0.0 | 0.00 | 0.00 | 0.00 | 55 | 1010.6 |
| 20260903012547 | 32 | 146 | 0.0 | 1.6 | 0.00 | 0.00 | 0.00 | 55 | 1010.6 |
| 20260903012025 | 32 | 146 | 0.0 | 1.6 | 0.00 | 0.00 | 0.00 | 54 | 1010.6 |
| 20260903011536 | 32 | 146 | 0.0 | 1.6 | 0.00 | 0.00 | 0.00 | 54 | 1010.6 |
| 20260903011012 | 33 | 146 | 0.0 | 4.8 | 0.00 | 0.00 | 0.00 | 51 | 1010.7 |
| 20260903010553 | 33 | 146 | 1.6 | 4.8 | 0.00 | 0.00 | 0.00 | 50 | 1010.7 |
| 20260903010105 | 33 | 146 | 0.0 | 0.0 | 0.00 | 0.00 | 0.00 | 50 | 1010.5 |
| 20260903005544 | 33 | 146 | 0.0 | 0.0 | 0.00 | 0.00 | 0.00 | 48 | 1010.5 |
| 20260903005018 | 34 | 146 | 0.0 | 0.0 | 0.00 | 0.00 | 0.00 | 48 | 1010.5 |
| 20260903004536 | 34 | 146 | 0.0 | 0.0 | 0.00 | 0.00 | 0.00 | 47 | 1010.6 |
| 20260903004008 | 34 | 146 | 0.0 | 1.6 | 0.00 | 0.00 | 0.00 | 48 | 1010.6 |
| 20260903003547 | 34 | 146 | 0.0 | 1.6 | 0.00 | 0.00 | 0.00 | 47 | 1010.6 |
| 20260903003058 | 35 | 146 | 0.0 | 1.6 | 0.00 | 0.00 | 0.00 | 48 | 1010.6 |
| 20260903002535 | 35 | 146 | 0.0 | 1.6 | 0.00 | 0.00 | 0.00 | 47 | 1010.6 |
| 20260903002014 | 35 | 146 | 0.0 | 3.2 | 0.00 | 0.00 | 0.00 | 46 | 1010.5 |
| 20260903001521 | 35 | 146 | 0.0 | 4.8 | 0.00 | 0.00 | 0.00 | 46 | 1010.5 |
| 20260903001103 | 35 | 146 | 1.6 | 4.8 | 0.00 | 0.00 | 0.00 | 45 | 1010.5 |
| 20260903000540 | 35 | 146 | 1.6 | 4.8 | 0.00 | 0.00 | 0.00 | 44 | 1010.5 |
| 20260903000051 | 35 | 146 | 1.6 | 4.8 | 0.00 | 0.00 | 0.00 | 44 | 1010.5 |
| 20260902235527 | 35 | 146 | 0.0 | 4.8 | 0.00 | 0.00 | 0.00 | 45 | 1010.5 |
| 20260902235004 | 35 | 146 | 1.6 | 6.4 | 0.00 | 0.00 | 0.00 | 44 | 1010.5 |
| 20260902234516 | 35 | 146 | 3.2 | 6.4 | 0.00 | 0.00 | 0.00 | 43 | 1010.5 |
| 20260902234056 | 35 | 146 | 1.6 | 6.4 | 0.00 | 0.00 | 0.00 | 43 | 1010.5 |
| 20260902233533 | 36 | 146 | 1.6 | 8.0 | 0.00 | 0.00 | 0.00 | 43 | 1010.5 |
| 20260902233045 | 36 | 147 | 0.0 | 8.0 | 0.00 | 0.00 | 0.00 | 42 | 1010.6 |
| 20260902232524 | 36 | 210 | 1.6 | 8.0 | 0.00 | 0.00 | 0.00 | 42 | 1010.6 |
| 20260902232103 | 36 | 199 | 0.0 | 8.0 | 0.00 | 0.00 | 0.00 | 43 | 1010.6 |
| 20260902231515 | 36 | 138 | 1.6 | 8.0 | 0.00 | 0.00 | 0.00 | 43 | 1010.6 |
| 20260902231054 | 36 | 174 | 1.6 | 11.3 | 0.00 | 0.00 | 0.00 | 43 | 1010.6 |
| 20260902230526 | 37 | 140 | 3.2 | 16.1 | 0.00 | 0.00 | 0.00 | 41 | 1010.6 |
| 20260902230039 | 38 | 138 | 3.2 | 11.3 | 0.00 | 0.00 | 0.00 | 39 | 1010.6 |
| 20260902225517 | 38 | 280 | 1.6 | 8.0 | 0.00 | 0.00 | 0.00 | 37 | 1010.3 |
| 20260902225101 | 38 | 245 | 1.6 | 4.8 | 0.00 | 0.00 | 0.00 | 37 | 1010.2 |
| 20260902224504 | 38 | 258 | 1.6 | 6.4 | 0.00 | 0.00 | 0.00 | 37 | 1010.2 |
| 20260902224045 | 38 | 257 | 1.6 | 6.4 | 0.00 | 0.00 | 0.00 | 38 | 1010.1 |
| 20260902223522 | 38 | 329 | 1.6 | 8.0 | 0.00 | 0.00 | 0.00 | 37 | 1010.2 |
| 20260902223034 | 38 | 333 | 0.0 | 4.8 | 0.00 | 0.00 | 0.00 | 37 | 1010.2 |
| 20260902222511 | 37 | 333 | 0.0 | 8.0 | 0.00 | 0.00 | 0.00 | 40 | 1010.3 |
| 20260902222051 | 37 | 333 | 3.2 | 8.0 | 0.00 | 0.00 | 0.00 | 40 | 1010.3 |
| 20260902221602 | 37 | 340 | 1.6 | 8.0 | 0.00 | 0.00 | 0.00 | 40 | 1010.4 |
| 20260902221039 | 37 | 339 | 1.6 | 8.0 | 0.00 | 0.00 | 0.00 | 40 | 1010.4 |
| 20260902220519 | 37 | 321 | 3.2 | 8.0 | 0.00 | 0.00 | 0.00 | 39 | 1010.5 |
| 20260902220027 | 36 | 333 | 3.2 | 8.0 | 0.00 | 0.00 | 0.00 | 43 | 1010.5 |
| 20260902215506 | 36 | 68 | 1.6 | 8.0 | 0.00 | 0.00 | 0.00 | 43 | 1010.7 |
| 20260902215044 | 36 | 292 | 1.6 | 6.4 | 0.00 | 0.00 | 0.00 | 42 | 1010.7 |
| 20260902214556 | 36 | 269 | 3.2 | 4.8 | 0.00 | 0.00 | 0.00 | 42 | 1010.7 |
| 20260902214032 | 36 | 268 | 1.6 | 4.8 | 0.00 | 0.00 | 0.00 | 43 | 1010.7 |
| 20260902213508 | 36 | 268 | 1.6 | 6.4 | 0.00 | 0.00 | 0.00 | 43 | 1010.7 |
| 20260902213023 | 36 | 268 | 1.6 | 8.0 | 0.00 | 0.00 | 0.00 | 41 | 1010.7 |
| 20260902212602 | 37 | 331 | 3.2 | 8.0 | 0.00 | 0.00 | 0.00 | 40 | 1010.8 |
| 20260902212037 | 38 | 244 | 3.2 | 6.4 | 0.00 | 0.00 | 0.00 | 36 | 1010.7 |
| 20260902211556 | 38 | 242 | 0.0 | 8.0 | 0.00 | 0.00 | 0.00 | 36 | 1010.7 |
| 20260902211028 | 38 | 334 | 1.6 | 11.3 | 0.00 | 0.00 | 0.00 | 36 | 1010.7 |
| 20260902210501 | 38 | 265 | 4.8 | 11.3 | 0.00 | 0.00 | 0.00 | 36 | 1010.9 |
| 20260902210012 | 38 | 254 | 3.2 | 11.3 | 0.00 | 0.00 | 0.00 | 35 | 1010.9 |
| 20260902205554 | 37 | 259 | 4.8 | 11.3 | 0.00 | 0.00 | 0.00 | 36 | 1010.9 |
| 20260902205030 | 37 | 253 | 4.8 | 11.3 | 0.00 | 0.00 | 0.00 | 38 | 1010.9 |
| 20260902204543 | 37 | 210 | 3.2 | 9.7 | 0.00 | 0.00 | 0.00 | 38 | 1011.0 |
| 20260902204021 | 37 | 144 | 1.6 | 9.7 | 0.00 | 0.00 | 0.00 | 40 | 1011.1 |
| 20260902203559 | 37 | 238 | 3.2 | 9.7 | 0.00 | 0.00 | 0.00 | 41 | 1011.2 |
| 20260902203004 | 37 | 140 | 3.2 | 8.0 | 0.00 | 0.00 | 0.00 | 40 | 1011.3 |
| 20260902202546 | 37 | 250 | 0.0 | 6.4 | 0.00 | 0.00 | 0.00 | 40 | 1011.3 |
| 20260902202023 | 37 | 189 | 1.6 | 6.4 | 0.00 | 0.00 | 0.00 | 41 | 1011.4 |
| 20260902201537 | 37 | 238 | 3.2 | 8.0 | 0.00 | 0.00 | 0.00 | 43 | 1011.5 |
| 20260902201010 | 36 | 136 | 1.6 | 8.0 | 0.00 | 0.00 | 0.00 | 45 | 1011.5 |
| 20260902200551 | 36 | 263 | 1.6 | 6.4 | 0.00 | 0.00 | 0.00 | 41 | 1011.6 |
| 20260902195543 | 36 | 263 | 0.0 | 6.4 | 0.00 | 0.00 | 0.00 | 46 | 1011.9 |
| 20260902195015 | 35 | 262 | 1.6 | 4.8 | 0.00 | 0.00 | 0.00 | 46 | 1012.0 |
| 20260902194535 | 35 | 360 | 0.0 | 6.4 | 0.00 | 0.00 | 0.00 | 48 | 1012.1 |
| 20260902194004 | 35 | 360 | 0.0 | 6.4 | 0.00 | 0.00 | 0.00 | 48 | 1012.1 |
| 20260902193544 | 35 | 360 | 0.0 | 6.4 | 0.00 | 0.00 | 0.00 | 47 | 1012.2 |
| 20260902193057 | 35 | 360 | 0.0 | 12.9 | 0.00 | 0.00 | 0.00 | 47 | 1012.3 |
| 20260902192532 | 36 | 302 | 4.8 | 12.9 | 0.00 | 0.00 | 0.00 | 44 | 1012.3 |
| 20260902192009 | 37 | 66 | 1.6 | 6.4 | 0.00 | 0.00 | 0.00 | 41 | 1012.3 |
| 20260902191524 | 37 | 66 | 3.2 | 6.4 | 0.00 | 0.00 | 0.00 | 42 | 1012.4 |
| 20260902191102 | 37 | 66 | 0.0 | 8.0 | 0.00 | 0.00 | 0.00 | 42 | 1012.5 |
| 20260902190538 | 37 | 66 | 0.0 | 12.9 | 0.00 | 0.00 | 0.00 | 42 | 1012.6 |
| 20260902190054 | 37 | 63 | 4.8 | 12.9 | 0.00 | 0.00 | 0.00 | 44 | 1012.6 |
| 20260902185526 | 36 | 345 | 3.2 | 11.3 | 0.00 | 0.00 | 0.00 | 44 | 1012.7 |
| 20260902185001 | 35 | 260 | 1.6 | 11.3 | 0.00 | 0.00 | 0.00 | 44 | 1012.8 |
| 20260902184514 | 35 | 301 | 3.2 | 8.0 | 0.00 | 0.00 | 0.00 | 44 | 1012.8 |
| 20260902184054 | 36 | 297 | 3.2 | 8.0 | 0.00 | 0.00 | 0.00 | 44 | 1013.0 |
| 20260902183531 | 36 | 215 | 1.6 | 9.7 | 0.00 | 0.00 | 0.00 | 43 | 1013.1 |
| 20260902183042 | 36 | 259 | 3.2 | 11.3 | 0.00 | 0.00 | 0.00 | 42 | 1013.1 |
| 20260902182521 | 36 | 261 | 4.8 | 11.3 | 0.00 | 0.00 | 0.00 | 43 | 1013.2 |
| 20260902182101 | 36 | 247 | 1.6 | 11.3 | 0.00 | 0.00 | 0.00 | 43 | 1013.3 |
| 20260902181509 | 36 | 138 | 3.2 | 11.3 | 0.00 | 0.00 | 0.00 | 43 | 1013.3 |
| 20260902181050 | 36 | 139 | 1.6 | 11.3 | 0.00 | 0.00 | 0.00 | 44 | 1013.5 |
| 20260902180529 | 36 | 101 | 1.6 | 12.9 | 0.00 | 0.00 | 0.00 | 44 | 1013.7 |
| 20260902180043 | 36 | 135 | 4.8 | 12.9 | 0.00 | 0.00 | 0.00 | 44 | 1013.7 |
| 20260902175518 | 36 | 267 | 1.6 | 11.3 | 0.00 | 0.00 | 0.00 | 45 | 1013.8 |
| 20260902175103 | 36 | 153 | 1.6 | 11.3 | 0.00 | 0.00 | 0.00 | 45 | 1014.0 |
| 20260902174507 | 35 | 271 | 6.4 | 11.3 | 0.00 | 0.00 | 0.00 | 44 | 1014.0 |
| 20260902174047 | 35 | 208 | 1.6 | 11.3 | 0.00 | 0.00 | 0.00 | 45 | 1014.1 |
| 20260902173525 | 35 | 281 | 4.8 | 11.3 | 0.00 | 0.00 | 0.00 | 45 | 1014.2 |
| 20260902173038 | 35 | 258 | 1.6 | 9.7 | 0.00 | 0.00 | 0.00 | 45 | 1014.3 |
| 20260902172511 | 35 | 258 | 4.8 | 12.9 | 0.00 | 0.00 | 0.00 | 45 | 1014.3 |
| 20260902172053 | 35 | 254 | 4.8 | 12.9 | 0.00 | 0.00 | 0.00 | 45 | 1014.5 |
| 20260902171605 | 35 | 259 | 3.2 | 12.9 | 0.00 | 0.00 | 0.00 | 47 | 1014.5 |
| 20260902171042 | 35 | 246 | 1.6 | 11.3 | 0.00 | 0.00 | 0.00 | 47 | 1014.5 |
| 20260902170516 | 35 | 254 | 3.2 | 11.3 | 0.00 | 0.00 | 0.00 | 46 | 1014.6 |
| 20260902170024 | 34 | 209 | 0.0 | 11.3 | 0.00 | 0.00 | 0.00 | 47 | 1014.7 |
| 20260902165605 | 34 | 273 | 4.8 | 11.3 | 0.00 | 0.00 | 0.00 | 48 | 1014.7 |
| 20260902165041 | 34 | 210 | 3.2 | 6.4 | 0.00 | 0.00 | 0.00 | 50 | 1014.7 |
| 20260902164552 | 33 | 263 | 1.6 | 11.3 | 0.00 | 0.00 | 0.00 | 49 | 1014.8 |
| 20260902164029 | 33 | 244 | 3.2 | 11.3 | 0.00 | 0.00 | 0.00 | 50 | 1014.8 |
| 20260902163505 | 33 | 284 | 3.2 | 11.3 | 0.00 | 0.00 | 0.00 | 52 | 1014.9 |
| 20260902163017 | 33 | 331 | 0.0 | 9.7 | 0.00 | 0.00 | 0.00 | 53 | 1015.0 |
| 20260902162557 | 33 | 313 | 3.2 | 8.0 | 0.00 | 0.00 | 0.00 | 52 | 1015.0 |
| 20260902162035 | 33 | 271 | 3.2 | 6.4 | 0.00 | 0.00 | 0.00 | 53 | 1015.0 |
| 20260902161547 | 33 | 271 | 1.6 | 9.7 | 0.00 | 0.00 | 0.00 | 53 | 1015.1 |
| 20260902161025 | 33 | 271 | 1.6 | 9.7 | 0.00 | 0.00 | 0.00 | 54 | 1015.1 |
| 20260902160503 | 32 | 271 | 1.6 | 6.4 | 0.00 | 0.00 | 0.00 | 54 | 1015.1 |
| 20260902160013 | 32 | 271 | 1.6 | 8.0 | 0.00 | 0.00 | 0.00 | 55 | 1015.1 |
| 20260902155556 | 32 | 257 | 3.2 | 12.9 | 0.00 | 0.00 | 0.00 | 55 | 1015.2 |
| 20260902155033 | 32 | 281 | 3.2 | 12.9 | 0.00 | 0.00 | 0.00 | 55 | 1015.1 |
| 20260902154544 | 32 | 192 | 1.6 | 6.4 | 0.00 | 0.00 | 0.00 | 57 | 1015.1 |
| 20260902154020 | 31 | 276 | 1.6 | 6.4 | 0.00 | 0.00 | 0.00 | 57 | 1015.1 |
| 20260902153600 | 31 | 276 | 1.6 | 6.4 | 0.00 | 0.00 | 0.00 | 58 | 1015.2 |
| 20260902153007 | 31 | 218 | 1.6 | 6.4 | 0.00 | 0.00 | 0.00 | 60 | 1015.2 |
| 20260902152547 | 31 | 218 | 1.6 | 6.4 | 0.00 | 0.00 | 0.00 | 59 | 1015.2 |